TimeAKDT,TemperatureF,Dew PointF,Humidity,Sea Level PressureIn,VisibilityMPH,Wind Direction,Wind SpeedMPH,Gust SpeedMPH,PrecipitationIn,Events,Conditions,WindDirDegrees,DateUTC
12:56 AM,39.0,26.1,60,30.23,10.0,NNW,3.5,-,N/A,,Overcast,330,2013-05-10 08:56:00
1:56 AM,41.0,25.0,53,30.22,10.0,NNW,4.6,-,N/A,,Overcast,340,2013-05-10 09:56:00
2:56 AM,39.9,24.1,53,30.22,10.0,ENE,3.5,-,N/A,,Overcast,70,2013-05-10 10:56:00
3:56 AM,37.9,27.0,65,30.22,10.0,ESE,4.6,-,N/A,,Overcast,120,2013-05-10 11:56:00
4:56 AM,37.0,25.0,62,30.21,10.0,East,3.5,-,N/A,,Partly Cloudy,90,2013-05-10 12:56:00
5:56 AM,36.0,25.0,64,30.21,10.0,East,3.5,-,N/A,,Clear,90,2013-05-10 13:56:00
6:30 AM,35.6,24.8,65,30.19,7.0,Calm,Calm,-,N/A,,Scattered Clouds,0,2013-05-10 14:30:00
6:55 AM,37.4,24.8,60,30.20,7.0,Calm,Calm,-,N/A,,Scattered Clouds,0,2013-05-10 14:55:00
7:55 AM,41.0,24.8,53,30.20,7.0,East,4.6,-,N/A,,Scattered Clouds,90,2013-05-10 15:55:00
8:55 AM,41.0,26.6,57,30.19,7.0,Calm,Calm,-,N/A,,Scattered Clouds,0,2013-05-10 16:55:00
9:55 AM,44.6,23.0,43,30.18,7.0,SSE,4.6,-,N/A,,Scattered Clouds,160,2013-05-10 17:55:00
10:55 AM,46.4,23.0,40,30.17,7.0,South,5.8,-,N/A,,Scattered Clouds,190,2013-05-10 18:55:00
11:55 AM,48.2,23.0,37,30.16,7.0,SSW,6.9,-,N/A,,Scattered Clouds,200,2013-05-10 19:55:00
1:55 PM,50.0,21.2,32,30.12,15.0,WSW,3.5,-,N/A,,Scattered Clouds,250,2013-05-10 21:55:00
2:55 PM,53.6,19.4,26,30.10,15.0,Calm,Calm,-,N/A,,Scattered Clouds,0,2013-05-10 22:55:00
3:55 PM,51.8,19.4,28,30.08,15.0,Calm,Calm,-,N/A,,Scattered Clouds,0,2013-05-10 23:55:00
4:55 PM,53.6,15.8,22,30.06,15.0,Calm,Calm,-,N/A,,Scattered Clouds,0,2013-05-11 00:55:00
5:55 PM,55.4,15.8,21,30.03,15.0,SSW,4.6,-,N/A,,Mostly Cloudy,200,2013-05-11 01:55:00
6:55 PM,53.6,17.6,24,30.01,15.0,West,4.6,-,N/A,,Mostly Cloudy,260,2013-05-11 02:55:00
7:55 PM,51.8,19.4,28,30.00,15.0,Calm,Calm,-,N/A,,Mostly Cloudy,0,2013-05-11 03:55:00
8:55 PM,51.8,24.8,35,29.98,15.0,Calm,Calm,-,N/A,,Mostly Cloudy,0,2013-05-11 04:55:00
10:56 PM,44.1,26.1,49,29.97,9.0,Calm,Calm,-,N/A,,Partly Cloudy,0,2013-05-11 06:56:00
11:56 PM,37.9,23.0,55,29.96,10.0,Calm,Calm,-,N/A,,Scattered Clouds,0,2013-05-11 07:56:00